Regional Weather Roundup
Issued by NWS Green Bay, WI

Home | Current Version | Previous Version | Text Only | Print | Product List | Glossary On
Versions: 1 2 3 4 5 6 7 8 9 10 11 12 13 14 15 16 17 18 19 20 21 22 23 24 25 26 27 28 29 30 31 32 33 34 35 36 37 38 39 40 41 42 43 44 45 46 47 48 49 50
707
ASUS43 KGRB 290811
RWRGRB

NORTH-CENTRAL AND NORTHEAST WISCONSIN REGIONAL WEATHER ROUNDUP
NATIONAL WEATHER SERVICE GREEN BAY WI
300 AM CDT WED MAR 29 2017

WIZ005-009-010>012-018-019-290900-
NORTH CENTRAL WISCONSIN

CITY           SKY/WX    TMP DP  RH WIND       PRES   REMARKS
IRONWOOD       CLEAR     34  27  75 E12       30.26S
MANITOWISH WTR CLEAR     31  28  86 E3        30.24S
ARBOR VITAE    CLEAR     34  29  82 SE3       30.24S
EAGLE RIVER    CLEAR     28  27  96 CALM      30.25S
LAND O LAKES   CLEAR     27  26  97 CALM      30.27S
RHINELANDER    CLEAR     31  27  85 CALM      30.25S
PHILLIPS       CLEAR     28  25  89 CALM      30.23S
ANTIGO         CLEAR     32  29  88 NE7       30.25S
TOMAHAWK       CLEAR     26  24  92 CALM      30.25S
MERRILL        CLEAR     28  28  97 CALM      30.25S
$$

WIZ013-073-290900-
NORTHEAST WISCONSIN

CITY           SKY/WX    TMP DP  RH WIND       PRES   REMARKS
IRON MOUNTAIN  CLEAR     29  22  75 CALM      30.27S
MARINETTE        N/A    N/A N/A N/A MISG        N/A
OCONTO         CLEAR     27  27  98 CALM      30.27S
$$

WIZ017-030-035>037-045-290900-
CENTRAL WISCONSIN

CITY           SKY/WX    TMP DP  RH WIND       PRES   REMARKS
MEDFORD        CLOUDY    34  28  80 SE3       30.22F
WAUSAU         CLEAR     34  29  82 CALM      30.23S
MOSINEE        CLEAR     36  30  80 NE3       30.25S
MARSHFIELD     CLEAR     37  29  72 NE3       30.22S
WISC RAPIDS    CLOUDY    33  30  88 CALM      30.25R
STEVENS POINT  CLEAR     28  26  94 CALM      30.25S
WAUPACA        CLEAR     33  31  91 CALM      30.25S
SHAWANO        CLEAR     34  32  91 CALM      30.27S
CLINTONVILLE   CLEAR     34  30  86 NE6       30.25F
WAUTOMA        CLOUDY    29  27  92 CALM      30.25S
$$

WIZ038-039-048-051-290900-
FOX VALLEY

CITY           SKY/WX    TMP DP  RH WIND       PRES   REMARKS
NWS GREEN BAY  CLEAR     34  34 100 NE8       30.26R
APPLETON       CLEAR     36  30  80 NE6       30.23S
OSHKOSH        PTCLDY    37  30  75 N3        30.24S
FOND DU LAC    PTCLDY    34  30  85 CALM      30.24S
$$

WIZ022-050-052-290900-
EAST CENTRAL WISCONSIN

CITY           SKY/WX    TMP DP  RH WIND       PRES   REMARKS
EPHRAIM        FAIR      35  30  85 N5        30.27S
WASHINGTON ISL FAIR      34  29  83 NE8       30.28S
STURGEON BAY   CLEAR     35  29  78 N3        30.24S
MANITOWOC      CLEAR     33  30  88 N5        30.26S
SHEBOYGAN      CLEAR     31  28  89 NE5       30.24S
$$

LMZ563-521-522-541>543-290900-
LAKESHORE

STATION/POSITION TIME  TEMP    WIND        PRES    VSBY  WAVE
                       AIR SEA DIR/SP/G                  HT/PER
                 (UTC) (F)     (DEG/KT/KT) (MB)    (MI)  (FT/S)
SHEBOYGAN LKSHOR 0800   36      20/ 10/ 11 1024.6F
KEWAUNEE LKSHORE 0742   37      50/  4/  7 1024.2R
NORTHPORT PIER   0740   34     300/  1/  4 1025.4S
CHAMBERS ISLAND  0740   31     360/  3/  5 1025.1S
MENOMINEE LKSHOR 0742   33     360/  6/  7 1024.5S
$$




USA.gov is the U.S. government's official web portal to all federal, state and local government web resources and services.